SCP
0 0 0 0 0 0 0 0 0 0 0 0 0 0 0 0 0 0 0 0 0 0 0 0 0 0 0 0 0 0 0 0 0 0 0 0 0 0 0 0 0 0 0 0
0 0 0 0 0 0 0 0 0 0 0 0 0 0 0 0 0 0 0 0 0 0 0 0 0 0 0 0 0 0 0 0 0 0 0 0 0 0 0 0 0 0 0 0
0 0 0 0 0 0 0 0 0 0 0 0 0 0 0 0 0 0 0 0 0 0 0 0 0 0 0 0 0 0 0 0 0 0 0 0 0 0 0 0 0 0 0 0
0 0 0 0 0 0 0 0 0 0 0 0 0 0 0 0 0 0 0 0 0 0 0 0 0 0 0 0 0 0 0 0 0 0 0 0 0 0 0 0 0 0 0 0
0 0 0 0 0 0 0 0 0 0 0 0 0 0 0 0 0 0 0 0 0 0 0 0 0 0 0 0 0 0 0 0 0 0 0 0 0 0 0 0 0 0 0 0
0 0 0 0 0 0 0 0 0 0 0 0 0 0 0 0 0 0 0 0 0 0 0 0 0 0 0 0 0 0 0 0 0 0 0 0 0 0 0 0 0 0 0 0
0 0 0 0 0 0 0 0 0 0 0 0 0 0 0 0 0 0 0 0 0 0 0 0 0 0 0 0 0 0 0 0 0 0 0 0 0 0 0 0 0 0 0 0
0 0 0 0 0 0 0 0 0 0 0 0 0 0 0 0 0 0 0 0 0 0 0 0 0 0 0 0 0 0 0 0 0 0 0 0 0 0 0 0 0 0 0 0
0 0 0 0 0 0 0 0 0 0 0 0 0 0 0 0 0 0 0 0 0 0 0 0 0 0 0 0 0 0 0 0 0 0 0 0 0 0 0 0 0 0 0 0
0 0 0 0 0 0 0 0 0 0 0 0 0 0 0 0 0 0 0 0 0 0 0 0 0 0 0 0 0 0 0 0 0 0 0 0 0 0 0 0 0 0 0 0
0 0 0 0 0 0 0 0 0 0 0 0 0 0 0 0 0 0 0 0 0 0 0 0 0 0 0 0 0 0 0 0 0 0 0 0 0 0 0 0 0 0 0 0
0 0 0 0 0 0 0 0 0 0 0 0 0 0 0 0 0 0 0 0 0 0 0 0 0 0 0 0 0 0 0 0 0 0 0 0 0 0 0 0 0 0 0 0
0 0 0 0 0 0 0 0 0 0 0 0 0 0 0 0 0 0 0 0 0 0 0 0 0 0 0 0 0 0 0 0 0 0 0 0 0 0 0 0 0 0 0 0
0 0 0 0 0 0 0 0 0 0 0 0 0 0 0 0 0 0 0 0 0 0 0 0 0 0 0 0 0 0 0 0 0 0 0 0 0 0 0 0 0 0 0 0
0 0 0 0 0 0 0 0 0 0 0 0 0 0 0 0 0 0 0 0 0 0 0 0 0 0 0 0 0 0 0 0 0 0 0 0 0 0 0 0 0 0 0 0
0 0 0 0 0 0 0 0 0 0 0 0 0 0 0 0 0 0 0 0 0 0 0 0 0 0 0 0 0 0 0 0 0 0 0 0 0 0 0 0 0 0 0 0
0 0 0 0 0 0 0 0 0 0 0 0 0 0 0 0 0 0 0 0 0 0 0 0 0 0 0 0 0 0 0 0 0 0 0 0 0 0 0 0 0 0 0 0
0 0 0 0 0 0 0 0 0 0 0 0 0 0 0 0 0 0 0 0 0 0 0 0 0 0 0 0 0 0 0 0 0 0 0 0 0 0 0 0 0 0 0 0
0 0 0 0 0 0 0 0 0 0 0 0 0 0 0 0 0 0 0 0 0 0 0 0 0 0 0 0 0 0 0 0 0 0 0 0 0 0 0 0 0 0 0 0
0 0 0 0 0 0 0 0 0 0 0 0 0 0 0 0 0 0 0 0 0 0 0 0 0 0 0 0 0 0 0 0 0 0 0 0 0 0 0 0 0 0 0 0
0 0 0 0 0 0 0 0 0 0 0 0 0 0 0 0 0 0 0 0 0 0 0 0 0 0 0 0 0 0 0 0 0 0 0 0 0 0 0 0 0 0 0 0
0 0 0 0 0 0 0 0 0 0 0 0 0 0 0 0 0 0 0 0 0 0 0 0 0 0 0 0 0 0 0 0 0 0 0 0 0 0 0 0 0 0 0 0
0 0 0 0 0 0 0 0 0 0 0 0 0 0 0 0 0 0 0 0 0 0 0 0 0 0 0 0 0 0 0 0 0 0 0 0 0 0 0 0 0 0 0 0
0 0 0 0 0 0 0 0 0 0 0 0 0 0 0 0 0 0 0 0 0 0 0 0 0 0 0 0 0 0 0 0 0 0 0 0 0 0 0 0 0 0 0 0
0 0 0 0 0 0 0 0 0 0 0 0 0 0 0 0 0 0 0 0 0 0 0 0 0 0 0 0 0 0 0 0 0 0 0 0 0 0 0 0 0 0 0 0
0 0 0 0 0 0 0 0 0 0 0 0 0 0 0 0 0 0 0 0 0 0 0 0 0 0 0 0 0 0 0 0 0 0 0 0 0 0 0 0 0 0 0 0
Wind_Speed
6 5 4 3 3 4 3 3 2 1 2 3 3 3 5 6 5 5 5 5 5 5 7 6 5 4 5 4 3 4 5 5 4 2 2 2 2 1 2 1 2 2 2 3
5 5 2 2 3 6 5 4 4 2 3 4 3 4 4 6 6 4 4 4 5 5 6 7 6 5 4 4 3 4 4 5 5 3 2 2 2 2 2 1 2 2 2 2
5 1 1 4 5 6 5 5 4 4 4 6 5 5 6 7 6 6 4 3 3 5 5 6 6 5 5 5 4 3 3 5 5 4 2 2 2 1 2 2 1 1 2 2
4 3 3 4 5 5 4 3 5 6 6 4 5 4 4 6 7 7 5 4 3 4 5 5 5 6 5 5 5 4 4 5 4 4 3 3 2 2 2 2 2 1 1 2
3 3 4 5 4 5 4 5 6 8 8 8 8 5 3 6 6 6 5 4 4 3 5 6 6 5 5 5 5 4 4 4 4 4 4 3 2 2 2 2 3 2 1 2
4 2 3 4 3 5 6 7 10 9 7 7 7 6 2 2 3 5 5 4 4 3 4 5 5 5 5 5 4 4 4 4 4 4 4 3 3 3 3 3 3 2 2 1
6 7 4 4 5 5 7 6 4 4 5 5 5 3 3 5 4 4 5 4 4 4 3 4 6 5 5 5 5 5 5 4 4 4 4 4 4 3 3 3 3 2 2 1
5 4 5 4 4 5 6 7 4 4 3 2 3 2 5 7 6 5 5 5 4 4 4 3 5 5 5 5 5 5 5 4 4 3 2 3 4 2 2 2 3 2 2 2
4 1 4 3 3 5 6 5 6 8 9 6 2 3 5 6 6 5 4 5 4 3 4 4 4 5 5 5 5 4 5 5 4 4 3 2 3 3 2 2 2 2 3 3
6 4 3 3 4 7 7 7 5 4 4 5 4 3 4 5 4 4 4 3 3 3 3 3 4 4 5 4 4 5 5 5 4 4 4 3 2 3 2 2 2 3 3 3
6 6 4 5 6 6 6 7 5 4 5 5 4 1 3 5 4 3 3 3 3 2 2 3 3 3 4 5 4 4 5 5 4 4 4 4 3 3 2 2 2 2 3 3
3 5 6 6 4 3 5 6 6 5 5 5 5 1 3 4 3 2 2 3 3 2 2 2 3 3 3 4 4 4 4 4 4 4 4 3 3 3 3 2 2 2 2 3
3 5 5 4 4 3 5 5 5 6 6 6 6 2 2 2 2 2 3 2 2 2 1 2 2 2 2 4 4 4 4 4 4 4 4 4 4 4 4 3 3 3 2 2
4 7 8 7 5 3 6 7 7 7 6 7 8 5 2 1 0 1 2 1 2 1 1 1 2 2 1 2 4 4 4 4 4 4 4 4 4 4 4 3 3 3 3 2
5 9 11 10 9 8 8 9 9 10 10 10 9 8 5 3 2 1 2 2 1 1 1 1 2 2 2 2 3 3 3 3 4 4 4 4 4 3 4 3 3 2 2 2
7 9 10 11 10 10 12 11 11 12 11 11 11 9 5 3 2 1 0 1 1 1 1 1 1 2 2 3 3 4 4 4 4 4 4 4 4 3 3 3 3 2 2 2
6 9 9 9 10 11 11 9 9 8 9 8 9 6 4 3 2 2 1 1 1 1 1 1 1 2 3 3 3 3 4 3 4 4 4 4 4 4 4 3 3 2 3 3
8 8 5 7 8 11 4 2 3 5 6 6 6 4 4 4 3 2 1 1 1 1 1 1 1 2 3 2 2 3 4 4 4 4 5 5 5 4 4 4 4 3 3 3
7 6 5 6 9 10 7 3 3 5 7 5 5 5 4 3 3 2 1 1 1 1 0 1 1 2 2 2 2 2 3 4 4 4 4 5 5 5 4 4 5 4 3 3
7 7 7 7 8 8 4 1 2 4 6 2 2 3 3 2 3 1 1 0 1 1 0 1 2 2 2 2 2 3 3 3 4 4 4 5 5 5 5 5 5 4 3 4
7 8 9 10 10 7 2 1 2 4 2 3 4 3 4 3 3 2 3 2 2 1 1 1 1 2 2 3 3 3 3 4 4 4 4 4 5 6 5 5 4 4 4 4
7 6 8 9 10 7 1 3 3 3 4 5 5 4 4 4 4 4 3 3 2 2 2 1 2 2 3 3 3 4 4 4 3 3 4 4 5 5 5 5 4 4 4 4
6 5 4 5 4 2 4 4 5 6 6 7 6 5 4 5 5 5 4 4 4 3 2 2 2 3 3 3 3 4 4 3 3 4 4 4 5 5 5 5 5 4 4 4
6 6 6 7 5 5 6 6 7 7 7 7 7 6 5 5 6 4 4 5 4 3 3 2 2 3 4 3 3 4 3 3 3 4 4 4 4 5 5 4 4 4 4 5
7 7 8 10 8 8 7 6 7 7 7 8 7 6 5 5 6 5 5 5 5 4 3 2 3 4 4 4 3 3 3 3 4 4 4 4 4 4 4 4 4 5 5 6
8 9 9 9 8 8 8 7 8 8 8 8 8 7 6 5 6 6 5 5 5 5 4 3 3 4 4 4 3 3 3 3 4 4 4 3 3 3 3 3 2 3 4 7
Wind_Direction
214 225 229 233 241 274 286 288 277 233 209 241 234 222 187 182 194 198 185 180 180 171 157 152 150 147 149 146 136 129 140 128 118 113 119 118 111 100 87 71 69 62 32 34
220 227 242 263 278 276 267 266 263 240 240 258 243 238 208 185 189 191 201 188 179 169 160 154 152 158 154 139 137 126 127 129 129 128 130 128 122 124 107 78 62 59 61 46
231 181 240 236 235 253 260 273 287 284 268 256 251 247 216 188 185 181 198 190 185 171 167 160 160 158 148 147 146 140 138 129 133 136 118 103 95 93 106 109 85 51 71 67
237 218 239 249 260 274 269 279 288 284 274 261 241 257 200 177 173 178 182 175 177 174 167 157 157 156 157 152 147 155 152 133 126 130 128 132 140 148 147 132 135 127 92 88
238 204 234 251 266 287 293 305 278 270 270 268 254 255 195 174 175 170 167 166 167 170 166 157 157 159 158 149 150 158 144 132 133 137 138 161 146 144 133 129 137 139 116 110
248 252 284 292 285 267 278 271 261 252 258 261 249 239 187 168 145 147 148 151 154 153 151 147 147 144 142 142 146 145 143 138 139 150 157 163 148 151 149 150 152 152 145 146
223 209 208 251 260 239 251 267 270 237 218 240 238 220 127 103 87 102 117 129 141 139 141 142 144 141 143 150 152 151 149 144 151 167 169 159 149 164 164 161 153 157 150 151
245 211 184 204 254 271 256 255 273 289 279 267 220 182 116 107 97 90 99 107 111 126 127 125 140 144 145 150 160 164 157 160 168 171 176 163 152 147 146 166 157 168 151 148
298 210 147 174 239 273 278 271 283 287 292 291 246 121 119 122 125 116 109 105 106 120 134 138 136 141 149 158 163 165 161 168 174 173 181 161 145 144 145 175 166 159 149 145
300 290 210 190 235 233 262 294 295 284 291 283 270 213 154 152 140 125 111 107 115 122 130 134 139 151 149 153 168 168 165 169 177 179 175 158 148 145 156 161 164 154 146 146
284 277 248 216 230 247 232 249 263 278 280 289 294 11 74 136 121 120 117 105 93 109 131 144 146 143 154 155 161 167 173 176 179 182 171 161 162 156 157 156 155 154 156 158
276 282 265 247 232 266 277 273 278 281 285 285 289 335 81 96 100 106 106 97 96 105 114 126 136 137 151 162 167 177 185 181 178 176 163 165 165 154 158 167 168 160 167 169
320 276 272 242 197 205 253 261 279 286 281 274 274 246 134 101 91 86 83 81 85 84 89 112 121 143 164 172 175 186 186 178 177 172 167 171 174 170 173 181 175 171 175 178
282 263 269 277 305 288 265 269 270 271 269 273 272 272 249 263 325 116 114 108 97 98 94 127 147 164 186 205 187 189 189 177 176 176 173 175 177 171 171 181 183 180 173 174
249 262 272 279 283 276 273 271 268 263 265 271 282 287 276 267 261 225 166 141 122 125 164 175 167 170 190 220 198 183 184 178 183 177 173 174 168 167 167 174 177 172 172 180
244 266 279 282 279 276 271 265 263 264 266 267 274 279 291 290 314 314 225 154 161 184 201 214 210 202 210 222 210 182 185 190 185 182 181 170 167 166 165 171 168 157 173 180
248 261 273 275 284 283 266 259 255 255 263 266 268 279 298 294 274 258 246 207 188 185 183 216 243 240 240 227 212 196 188 189 191 188 170 163 164 165 173 175 163 171 186 190
265 275 276 275 278 264 269 295 277 272 271 277 279 285 285 286 285 261 234 267 238 196 202 211 232 239 257 247 227 207 197 192 201 192 172 164 168 171 177 177 181 192 196 192
249 256 260 263 267 272 270 279 292 285 278 277 278 275 276 269 269 258 210 173 269 264 251 236 246 251 251 248 236 215 211 198 200 196 186 174 168 169 179 190 194 194 195 198
234 241 247 254 262 265 274 22 345 301 277 301 309 322 314 292 264 277 12 43 231 244 271 255 263 280 271 260 241 218 218 209 207 202 198 182 175 178 187 196 200 199 198 202
220 228 234 248 256 265 314 351 320 265 298 11 351 339 322 301 310 334 352 356 348 323 269 257 263 263 262 251 228 229 233 227 214 197 198 191 182 187 190 194 195 196 200 201
244 236 233 238 247 253 327 281 272 297 321 323 319 313 315 323 328 335 337 329 312 285 265 253 253 265 269 254 230 228 233 231 213 199 198 199 193 197 194 183 192 197 202 208
251 258 267 259 260 311 327 316 315 313 309 312 315 319 318 311 309 311 307 304 299 287 271 254 241 255 265 257 242 237 237 221 213 205 202 201 198 200 189 186 192 195 199 203
277 283 273 275 274 291 305 308 310 311 309 316 322 320 312 303 299 301 302 296 295 292 277 259 251 258 267 262 256 247 234 219 212 214 209 203 202 197 190 191 192 198 203 205
296 303 288 281 288 298 296 306 319 321 320 316 314 310 304 296 293 295 292 289 290 290 282 265 256 259 263 262 260 254 232 222 222 215 211 208 206 201 198 200 207 209 212 209
277 277 274 276 290 295 302 315 322 318 314 311 308 304 300 293 288 289 289 291 291 293 289 279 268 264 267 267 260 258 248 229 225 222 219 215 208 201 200 203 226 243 230 220